,,,PA_Meas_PMT16A,,PR_Meas_QMR101_102,,RH_Meas_QMH101,,SR_Meas_QMS101,,TA_Meas_QMH101,,GenWind,,GenWind,
date,time,status,PA,status,PR,status,RH,status,SR,status,TA,status,DirAvg,status,SpdAvg,
2009-08-13, 00:00:04,VALID,1008.62,VALID,0,VALID,92.3097,VALID,0,VALID,26.8131,VALID,197,VALID,0.0125,
2009-08-13, 00:01:04,VALID,1008.59,VALID,0,VALID,92.2487,VALID,0,VALID,26.8131,VALID,198,VALID,0,
2009-08-13, 00:02:04,VALID,1008.58,VALID,0,VALID,92.142,VALID,0,VALID,26.7721,VALID,197,VALID,0,
2009-08-13, 00:03:04,VALID,1008.56,VALID,0,VALID,92.0733,VALID,0,VALID,26.7721,VALID,197,VALID,0,
2009-08-13, 00:04:04,VALID,1008.53,VALID,0,VALID,92.2792,VALID,0,VALID,26.7916,VALID,197,VALID,0,
2009-08-13, 00:05:04,VALID,1008.54,VALID,0,VALID,92.6758,VALID,0.105969,VALID,26.8111,VALID,197,VALID,0,
2009-08-13, 00:06:04,VALID,1008.55,VALID,0,VALID,92.6758,VALID,0,VALID,26.8111,VALID,197,VALID,0,
2009-08-13, 00:07:04,VALID,1008.53,VALID,0,VALID,92.63,VALID,0,VALID,26.8306,VALID,197,VALID,0,
2009-08-13, 00:08:04,VALID,1008.55,VALID,0,VALID,92.6758,VALID,0,VALID,26.8306,VALID,197,VALID,0,
2009-08-13, 00:09:04,VALID,1008.52,VALID,0,VALID,92.8969,VALID,0,VALID,26.8306,VALID,197,VALID,0,
2009-08-13, 00:10:04,VALID,1008.53,VALID,0,VALID,93.1105,VALID,0,VALID,26.8501,VALID,197,VALID,0,
2009-08-13, 00:11:04,VALID,1008.52,VALID,0,VALID,92.7597,VALID,0,VALID,26.8306,VALID,197,VALID,0,
2009-08-13, 00:12:04,VALID,1008.49,VALID,0,VALID,92.2945,VALID,0,VALID,26.8306,VALID,197,VALID,0,
2009-08-13, 00:13:04,VALID,1008.48,VALID,0,VALID,91.2955,VALID,0,VALID,26.8306,VALID,197,VALID,0.01875,
2009-08-13, 00:14:04,VALID,1008.46,VALID,0,VALID,91.1354,VALID,0,VALID,26.8696,VALID,197,VALID,0,
2009-08-13, 00:15:04,VALID,1008.48,VALID,0,VALID,90.144,VALID,0,VALID,26.8891,VALID,198,VALID,0.0363281,
2009-08-13, 00:16:04,VALID,1008.43,VALID,0,VALID,89.0841,VALID,0,VALID,26.9302,VALID,197,VALID,0.100391,
2009-08-13, 00:17:04,VALID,1008.4,VALID,0,VALID,88.718,VALID,0,VALID,26.9887,VALID,197,VALID,0,
2009-08-13, 00:18:04,VALID,1008.4,VALID,0,VALID,88.6341,VALID,0,VALID,26.9866,VALID,197,VALID,0.0203125,
2009-08-13, 00:19:04,VALID,1008.37,VALID,0,VALID,88.3215,VALID,0,VALID,27.0277,VALID,198,VALID,0.00507812,
2009-08-13, 00:20:04,VALID,1008.34,VALID,0,VALID,89.2061,VALID,0.105969,VALID,27.0451,VALID,197,VALID,0,
2009-08-13, 00:21:04,VALID,1008.31,VALID,0,VALID,89.7094,VALID,0.105969,VALID,27.0841,VALID,197,VALID,0,
2009-08-13, 00:22:04,VALID,1008.32,VALID,0,VALID,89.9,VALID,0.105969,VALID,27.0667,VALID,197,VALID,0,
2009-08-13, 00:23:04,VALID,1008.29,VALID,0,VALID,89.7246,VALID,0,VALID,27.0277,VALID,197,VALID,0,
2009-08-13, 00:24:04,VALID,1008.27,VALID,0,VALID,88.6875,VALID,0.105969,VALID,26.9671,VALID,198,VALID,0,
2009-08-13, 00:25:04,VALID,1008.27,VALID,0,VALID,88.2223,VALID,0.105969,VALID,26.9281,VALID,198,VALID,0.107031,
2009-08-13, 00:26:04,VALID,1008.21,VALID,0,VALID,88.1308,VALID,0.105969,VALID,26.9086,VALID,197,VALID,0.268359,
2009-08-13, 00:27:04,VALID,1008.18,VALID,0,VALID,88.535,VALID,0.105969,VALID,26.8891,VALID,197,VALID,0.245312,
2009-08-13, 00:28:04,VALID,1008.18,VALID,0,VALID,89.0993,VALID,0.105969,VALID,26.8891,VALID,197,VALID,0.399609,
2009-08-13, 00:29:04,VALID,1008.13,VALID,0,VALID,89.023,VALID,0,VALID,26.8306,VALID,198,VALID,0.210547,
2009-08-13, 00:30:04,VALID,1008.13,VALID,0,VALID,89.3586,VALID,0.105969,VALID,26.7916,VALID,197,VALID,0,
2009-08-13, 00:31:04,VALID,1008.11,VALID,0,VALID,90.1212,VALID,0.105969,VALID,26.7721,VALID,197,VALID,0,
2009-08-13, 00:32:04,VALID,1008.1,VALID,0,VALID,91.0286,VALID,0,VALID,26.7721,VALID,197,VALID,0.262891,
2009-08-13, 00:33:04,VALID,1008.1,VALID,0,VALID,91.5395,VALID,0,VALID,26.7331,VALID,197,VALID,0.247656,
2009-08-13, 00:34:04,VALID,1008.05,VALID,0,VALID,91.7607,VALID,0,VALID,26.7136,VALID,197,VALID,0,
2009-08-13, 00:35:04,VALID,1008.08,VALID,0,VALID,91.8446,VALID,0,VALID,26.6746,VALID,198,VALID,0,
2009-08-13, 00:36:04,VALID,1008.07,VALID,0,VALID,91.5548,VALID,0,VALID,26.6571,VALID,198,VALID,0,
2009-08-13, 00:37:04,VALID,1008.04,VALID,0,VALID,91.3794,VALID,0,VALID,26.6551,VALID,197,VALID,0,
2009-08-13, 00:38:04,VALID,1008.02,VALID,0,VALID,90.9829,VALID,0,VALID,26.6961,VALID,197,VALID,0.114453,
2009-08-13, 00:39:04,VALID,1008,VALID,0,VALID,91.1354,VALID,0,VALID,26.7156,VALID,198,VALID,0.411719,
2009-08-13, 00:40:04,VALID,1007.99,VALID,0,VALID,90.4414,VALID,0,VALID,26.6941,VALID,198,VALID,0.591797,
2009-08-13, 00:41:04,VALID,1007.99,VALID,0,VALID,89.9229,VALID,0,VALID,26.7136,VALID,198,VALID,0.495703,
2009-08-13, 00:42:04,VALID,1007.98,VALID,0,VALID,88.6723,VALID,0,VALID,26.7741,VALID,201,VALID,0.534375,
2009-08-13, 00:43:04,VALID,1007.95,VALID,0,VALID,88.9697,VALID,0,VALID,26.8131,VALID,201,VALID,0.536719,
2009-08-13, 00:44:04,VALID,1007.94,VALID,0,VALID,89.8238,VALID,0,VALID,26.8521,VALID,201,VALID,0.455078,
2009-08-13, 00:45:04,VALID,1007.95,VALID,0,VALID,89.9915,VALID,0,VALID,26.8131,VALID,201,VALID,0.3125,
2009-08-13, 00:46:04,VALID,1007.93,VALID,0,VALID,89.6255,VALID,0,VALID,26.7526,VALID,214,VALID,0.379687,
2009-08-13, 00:47:04,VALID,1007.9,VALID,0,VALID,89.0612,VALID,0,VALID,26.7741,VALID,256,VALID,0.223438,
2009-08-13, 00:48:04,VALID,1007.88,VALID,0,VALID,89.4272,VALID,0,VALID,26.7936,VALID,256,VALID,0,
2009-08-13, 00:49:04,VALID,1007.89,VALID,0,VALID,89.2823,VALID,0,VALID,26.8131,VALID,256,VALID,0,
2009-08-13, 00:50:04,VALID,1007.89,VALID,0,VALID,88.8172,VALID,0,VALID,26.7936,VALID,256,VALID,0,
2009-08-13, 00:51:04,VALID,1007.85,VALID,0,VALID,88.8324,VALID,0,VALID,26.7916,VALID,256,VALID,0.325,
2009-08-13, 00:52:04,VALID,1007.83,VALID,0,VALID,89.2137,VALID,0,VALID,26.8326,VALID,12,VALID,0.472656,
2009-08-13, 00:53:04,VALID,1007.82,VALID,0,VALID,89.7094,VALID,0,VALID,26.8131,VALID,20,VALID,0.463281,
2009-08-13, 00:54:04,VALID,1007.81,VALID,0,VALID,89.412,VALID,0,VALID,26.7741,VALID,20,VALID,0.389453,
2009-08-13, 00:55:04,VALID,1007.81,VALID,0,VALID,89.7551,VALID,0,VALID,26.7546,VALID,20,VALID,0.347266,
2009-08-13, 00:56:04,VALID,1007.81,VALID,0,VALID,89.7094,VALID,0,VALID,26.7156,VALID,20,VALID,0.333594,
2009-08-13, 00:57:04,VALID,1007.8,VALID,0,VALID,90.5101,VALID,0,VALID,26.6766,VALID,20,VALID,0.354688,
2009-08-13, 00:58:04,VALID,1007.81,VALID,0,VALID,89.5645,VALID,0,VALID,26.5986,VALID,16,VALID,0.472266,
2009-08-13, 00:59:04,VALID,1007.79,VALID,0,VALID,90.1135,VALID,0,VALID,26.5791,VALID,360,VALID,0.425781,
2009-08-13, 01:00:04,VALID,1007.78,VALID,0,VALID,90.3576,VALID,0,VALID,26.5596,VALID,360,VALID,0.314844,
2009-08-13, 01:01:04,VALID,1007.79,VALID,0,VALID,90.5787,VALID,0,VALID,26.5206,VALID,360,VALID,0.270703,
2009-08-13, 01:02:04,VALID,1007.78,VALID,0,VALID,90.3423,VALID,0,VALID,26.4796,VALID,360,VALID,0.186719,
2009-08-13, 01:03:04,VALID,1007.79,VALID,0,VALID,90.5787,VALID,0,VALID,26.4816,VALID,360,VALID,0.307422,
2009-08-13, 01:04:04,VALID,1007.76,VALID,0,VALID,90.6473,VALID,0,VALID,26.4621,VALID,360,VALID,0.286719,
2009-08-13, 01:05:04,VALID,1007.75,VALID,0,VALID,90.7998,VALID,0,VALID,26.4211,VALID,360,VALID,0.339844,
2009-08-13, 01:06:04,VALID,1007.74,VALID,0,VALID,90.9142,VALID,0,VALID,26.4036,VALID,360,VALID,0.314453,
2009-08-13, 01:07:04,VALID,1007.71,VALID,0,VALID,90.9676,VALID,0,VALID,26.3626,VALID,360,VALID,0.582422,
2009-08-13, 01:08:04,VALID,1007.71,VALID,0,VALID,91.3565,VALID,0.105969,VALID,26.3646,VALID,360,VALID,0.296094,
2009-08-13, 01:09:04,VALID,1007.69,VALID,0,VALID,91.3336,VALID,0,VALID,26.3646,VALID,360,VALID,0.416016,
2009-08-13, 01:10:04,VALID,1007.7,VALID,0,VALID,91.4328,VALID,0,VALID,26.3646,VALID,360,VALID,0.365234,
2009-08-13, 01:11:04,VALID,1007.69,VALID,0,VALID,91.7836,VALID,0,VALID,26.3431,VALID,360,VALID,0,
2009-08-13, 01:12:04,VALID,1007.72,VALID,0,VALID,91.8446,VALID,0,VALID,26.3451,VALID,6,VALID,0.533594,
2009-08-13, 01:13:04,VALID,1007.75,VALID,0,VALID,92.1115,VALID,0,VALID,26.3256,VALID,16,VALID,0.467578,
2009-08-13, 01:14:04,VALID,1007.73,VALID,0,VALID,92.4013,VALID,0,VALID,26.2866,VALID,16,VALID,0.410156,
2009-08-13, 01:15:04,VALID,1007.74,VALID,0,VALID,92.4851,VALID,0,VALID,26.2671,VALID,23,VALID,0.520703,
2009-08-13, 01:16:04,VALID,1007.74,VALID,0,VALID,92.0962,VALID,0.105969,VALID,26.2281,VALID,25,VALID,0.522266,
2009-08-13, 01:17:04,VALID,1007.75,VALID,0,VALID,91.8217,VALID,0,VALID,26.2281,VALID,25,VALID,0.471875,
2009-08-13, 01:18:04,VALID,1007.75,VALID,0,VALID,92.1191,VALID,0,VALID,26.2261,VALID,25,VALID,0,
2009-08-13, 01:19:04,VALID,1007.75,VALID,0,VALID,91.8064,VALID,0,VALID,26.2456,VALID,3,VALID,0,
2009-08-13, 01:20:04,VALID,1007.74,VALID,0,VALID,91.8141,VALID,0,VALID,26.2456,VALID,3,VALID,0,
2009-08-13, 01:21:04,VALID,1007.77,VALID,0,VALID,92.0962,VALID,0,VALID,26.2671,VALID,3,VALID,0,
2009-08-13, 01:22:04,VALID,1007.74,VALID,0,VALID,91.9742,VALID,0,VALID,26.2671,VALID,2,VALID,0,
2009-08-13, 01:23:04,VALID,1007.74,VALID,0,VALID,91.9056,VALID,0,VALID,26.2866,VALID,330,VALID,0,
2009-08-13, 01:24:04,VALID,1007.75,VALID,0,VALID,91.8675,VALID,0,VALID,26.2846,VALID,323,VALID,0,
2009-08-13, 01:25:04,VALID,1007.72,VALID,0,VALID,91.8522,VALID,0,VALID,26.3061,VALID,323,VALID,0,
2009-08-13, 01:26:04,VALID,1007.69,VALID,0,VALID,91.9742,VALID,0,VALID,26.3061,VALID,323,VALID,0,
2009-08-13, 01:27:04,VALID,1007.66,VALID,0,VALID,91.9895,VALID,0,VALID,26.2651,VALID,323,VALID,0,
2009-08-13, 01:28:04,VALID,1007.61,VALID,0,VALID,92.0962,VALID,0,VALID,26.2846,VALID,323,VALID,0,
2009-08-13, 01:29:04,VALID,1007.59,VALID,0,VALID,92.1039,VALID,0,VALID,26.2651,VALID,323,VALID,0,
2009-08-13, 01:30:04,VALID,1007.59,VALID,0,VALID,92.1877,VALID,0,VALID,26.2671,VALID,323,VALID,0,
2009-08-13, 01:31:04,VALID,1007.6,VALID,0,VALID,92.3326,VALID,0,VALID,26.2476,VALID,323,VALID,0,
2009-08-13, 01:32:04,VALID,1007.6,VALID,0,VALID,92.508,VALID,0,VALID,26.2476,VALID,323,VALID,0,
2009-08-13, 01:33:04,VALID,1007.62,VALID,0,VALID,92.5995,VALID,0,VALID,26.2086,VALID,323,VALID,0,
2009-08-13, 01:34:04,VALID,1007.65,VALID,0,VALID,92.7825,VALID,0,VALID,26.1676,VALID,323,VALID,0,
2009-08-13, 01:35:04,VALID,1007.65,VALID,0,VALID,92.9579,VALID,0,VALID,26.1481,VALID,323,VALID,0,
2009-08-13, 01:36:04,VALID,1007.7,VALID,0,VALID,93.2172,VALID,0,VALID,26.1286,VALID,323,VALID,0,
2009-08-13, 01:37:04,VALID,1007.73,VALID,0,VALID,93.2782,VALID,0,VALID,26.1111,VALID,323,VALID,0,
2009-08-13, 01:38:04,VALID,1007.77,VALID,0,VALID,93.0952,VALID,0,VALID,26.0701,VALID,323,VALID,0,
2009-08-13, 01:39:04,VALID,1007.8,VALID,0,VALID,93.1486,VALID,0.105969,VALID,26.0701,VALID,323,VALID,0,
2009-08-13, 01:40:04,VALID,1007.85,VALID,0,VALID,93.1943,VALID,0,VALID,26.0701,VALID,323,VALID,0,
2009-08-13, 01:41:04,VALID,1007.84,VALID,0,VALID,93.202,VALID,0,VALID,26.0721,VALID,357,VALID,0,
2009-08-13, 01:42:04,VALID,1007.87,VALID,0,VALID,93.2248,VALID,0,VALID,26.0506,VALID,4,VALID,0,
2009-08-13, 01:43:04,VALID,1007.89,VALID,0,VALID,93.263,VALID,0,VALID,26.0506,VALID,4,VALID,0,
2009-08-13, 01:44:04,VALID,1007.91,VALID,0,VALID,93.3011,VALID,0,VALID,26.0721,VALID,4,VALID,0,
2009-08-13, 01:45:04,VALID,1007.89,VALID,0,VALID,93.3545,VALID,0,VALID,26.0721,VALID,4,VALID,0,
2009-08-13, 01:46:04,VALID,1007.9,VALID,0,VALID,93.4155,VALID,0,VALID,26.0311,VALID,4,VALID,0,
2009-08-13, 01:47:04,VALID,1007.91,VALID,0,VALID,93.2935,VALID,0,VALID,26.0311,VALID,4,VALID,0,
2009-08-13, 01:48:04,VALID,1007.9,VALID,0,VALID,93.3773,VALID,0,VALID,26.0331,VALID,4,VALID,0,
2009-08-13, 01:49:04,VALID,1007.9,VALID,0,VALID,93.3697,VALID,0,VALID,25.9921,VALID,4,VALID,0,
2009-08-13, 01:50:04,VALID,1007.88,VALID,0,VALID,93.4155,VALID,0.105969,VALID,26.0311,VALID,4,VALID,0,
2009-08-13, 01:51:04,VALID,1007.88,VALID,0,VALID,93.4612,VALID,0,VALID,26.0331,VALID,4,VALID,0,
2009-08-13, 01:52:04,VALID,1007.89,VALID,0,VALID,93.4765,VALID,0,VALID,26.0116,VALID,4,VALID,0,
2009-08-13, 01:53:04,VALID,1007.86,VALID,0,VALID,93.4384,VALID,0,VALID,26.0116,VALID,4,VALID,0,
2009-08-13, 01:54:04,VALID,1007.87,VALID,0,VALID,93.5222,VALID,0,VALID,26.0311,VALID,4,VALID,0,
2009-08-13, 01:55:04,VALID,1007.89,VALID,0,VALID,93.5985,VALID,0,VALID,26.0331,VALID,4,VALID,0,
2009-08-13, 01:56:04,VALID,1007.89,VALID,0,VALID,93.6366,VALID,0,VALID,26.0136,VALID,4,VALID,0,
2009-08-13, 01:57:04,VALID,1007.88,VALID,0,VALID,93.6214,VALID,0,VALID,26.0311,VALID,4,VALID,0,
2009-08-13, 01:58:04,VALID,1007.9,VALID,0,VALID,93.5604,VALID,0.105969,VALID,26.0311,VALID,4,VALID,0,
2009-08-13, 01:59:04,VALID,1007.88,VALID,0,VALID,93.5222,VALID,0.105969,VALID,26.0526,VALID,4,VALID,0,
2009-08-13, 02:00:04,VALID,1007.89,VALID,0,VALID,93.4994,VALID,0,VALID,26.0311,VALID,4,VALID,0,
2009-08-13, 02:01:04,VALID,1007.88,VALID,0,VALID,93.4917,VALID,0,VALID,26.0526,VALID,4,VALID,0,
2009-08-13, 02:02:04,VALID,1007.88,VALID,0,VALID,93.4765,VALID,0,VALID,26.0526,VALID,4,VALID,0,
2009-08-13, 02:03:04,VALID,1007.86,VALID,0,VALID,93.5375,VALID,0,VALID,25.9921,VALID,4,VALID,0,
2009-08-13, 02:04:04,VALID,1007.86,VALID,0,VALID,93.7663,VALID,0,VALID,25.9921,VALID,4,VALID,0,
2009-08-13, 02:05:04,VALID,1007.84,VALID,0,VALID,93.9188,VALID,0.105969,VALID,25.9356,VALID,4,VALID,0,
2009-08-13, 02:06:04,VALID,1007.84,VALID,0,VALID,94.0408,VALID,0,VALID,25.9161,VALID,4,VALID,0,
2009-08-13, 02:07:04,VALID,1007.83,VALID,0,VALID,94.2848,VALID,0,VALID,25.8751,VALID,4,VALID,0,
2009-08-13, 02:08:04,VALID,1007.85,VALID,0,VALID,94.4221,VALID,0,VALID,25.8771,VALID,4,VALID,0,
2009-08-13, 02:09:04,VALID,1007.84,VALID,0,VALID,94.5898,VALID,0,VALID,25.8576,VALID,4,VALID,0,
2009-08-13, 02:10:04,VALID,1007.85,VALID,0,VALID,94.6737,VALID,0,VALID,25.8381,VALID,4,VALID,0,
2009-08-13, 02:11:04,VALID,1007.85,VALID,0,VALID,94.75,VALID,0,VALID,25.8166,VALID,4,VALID,0,
2009-08-13, 02:12:04,VALID,1007.84,VALID,0,VALID,94.8415,VALID,0,VALID,25.7971,VALID,4,VALID,0,
2009-08-13, 02:13:04,VALID,1007.87,VALID,0,VALID,94.8644,VALID,0,VALID,25.7991,VALID,4,VALID,0,
2009-08-13, 02:14:04,VALID,1007.84,VALID,0,VALID,94.9101,VALID,0,VALID,25.7991,VALID,4,VALID,0,
2009-08-13, 02:15:04,VALID,1007.88,VALID,0,VALID,94.9788,VALID,0,VALID,25.7796,VALID,4,VALID,0,
2009-08-13, 02:16:04,VALID,1007.84,VALID,0,VALID,95.0474,VALID,0,VALID,25.7387,VALID,4,VALID,0,
2009-08-13, 02:17:04,VALID,1007.86,VALID,0,VALID,95.0855,VALID,0,VALID,25.7387,VALID,4,VALID,0,
2009-08-13, 02:18:04,VALID,1007.86,VALID,0,VALID,95.1542,VALID,0.105969,VALID,25.7601,VALID,4,VALID,0,
2009-08-13, 02:19:04,VALID,1007.83,VALID,0,VALID,95.1847,VALID,0,VALID,25.7601,VALID,4,VALID,0,
2009-08-13, 02:20:04,VALID,1007.86,VALID,0,VALID,95.2457,VALID,0,VALID,25.7601,VALID,4,VALID,0,
2009-08-13, 02:21:04,VALID,1007.82,VALID,0,VALID,95.2533,VALID,0.105969,VALID,25.7387,VALID,4,VALID,0,
2009-08-13, 02:22:04,VALID,1007.84,VALID,0,VALID,95.2838,VALID,0,VALID,25.7387,VALID,4,VALID,0,
2009-08-13, 02:23:04,VALID,1007.81,VALID,0,VALID,95.3219,VALID,0.105969,VALID,25.7387,VALID,4,VALID,0,
2009-08-13, 02:24:04,VALID,1007.81,VALID,0,VALID,95.299,VALID,0,VALID,25.7192,VALID,4,VALID,0,
2009-08-13, 02:25:04,VALID,1007.82,VALID,0,VALID,95.299,VALID,0,VALID,25.7406,VALID,4,VALID,0,
2009-08-13, 02:26:04,VALID,1007.81,VALID,0,VALID,95.3143,VALID,0,VALID,25.7192,VALID,4,VALID,0,
2009-08-13, 02:27:04,VALID,1007.82,VALID,0,VALID,95.299,VALID,0,VALID,25.7192,VALID,4,VALID,0,
2009-08-13, 02:28:04,VALID,1007.8,VALID,0,VALID,95.3677,VALID,0.105969,VALID,25.7192,VALID,4,VALID,0,
2009-08-13, 02:29:04,VALID,1007.8,VALID,0,VALID,95.4287,VALID,0.105969,VALID,25.7192,VALID,4,VALID,0,
2009-08-13, 02:30:04,VALID,1007.81,VALID,0,VALID,95.4211,VALID,0.105969,VALID,25.7192,VALID,4,VALID,0,
2009-08-13, 02:31:04,VALID,1007.79,VALID,0,VALID,95.4668,VALID,0,VALID,25.7192,VALID,26,VALID,0,
2009-08-13, 02:32:04,VALID,1007.8,VALID,0,VALID,95.5049,VALID,0,VALID,25.7387,VALID,30,VALID,0,
2009-08-13, 02:33:04,VALID,1007.78,VALID,0,VALID,95.5812,VALID,0,VALID,25.7601,VALID,47,VALID,0,
2009-08-13, 02:34:04,VALID,1007.76,VALID,0,VALID,95.5888,VALID,0,VALID,25.7581,VALID,50,VALID,0,
2009-08-13, 02:35:04,VALID,1007.78,VALID,0,VALID,95.5202,VALID,0,VALID,25.7562,VALID,50,VALID,0,
2009-08-13, 02:36:04,VALID,1007.78,VALID,0,VALID,95.4744,VALID,0,VALID,25.7991,VALID,50,VALID,0,
2009-08-13, 02:37:04,VALID,1007.78,VALID,0,VALID,95.4439,VALID,0.105969,VALID,25.8381,VALID,50,VALID,0,
2009-08-13, 02:38:04,VALID,1007.77,VALID,0,VALID,95.3677,VALID,0.105969,VALID,25.8381,VALID,50,VALID,0,
2009-08-13, 02:39:04,VALID,1007.79,VALID,0,VALID,95.3295,VALID,0,VALID,25.8576,VALID,50,VALID,0,
2009-08-13, 02:40:04,VALID,1007.79,VALID,0,VALID,95.2838,VALID,0.105969,VALID,25.8556,VALID,50,VALID,0,
2009-08-13, 02:41:04,VALID,1007.8,VALID,0,VALID,95.3067,VALID,0,VALID,25.8966,VALID,50,VALID,0,
2009-08-13, 02:42:04,VALID,1007.79,VALID,0,VALID,95.3067,VALID,0,VALID,25.9161,VALID,50,VALID,0,
2009-08-13, 02:43:04,VALID,1007.77,VALID,0,VALID,95.3448,VALID,0,VALID,25.9356,VALID,50,VALID,0,
2009-08-13, 02:44:04,VALID,1007.78,VALID,0,VALID,95.3829,VALID,0,VALID,25.9551,VALID,50,VALID,0,
2009-08-13, 02:45:04,VALID,1007.76,VALID,0,VALID,95.36,VALID,0,VALID,25.9746,VALID,50,VALID,0,
2009-08-13, 02:46:04,VALID,1007.75,VALID,0,VALID,95.1694,VALID,0.105969,VALID,25.9551,VALID,50,VALID,0,
2009-08-13, 02:47:04,VALID,1007.74,VALID,0,VALID,95.0474,VALID,0,VALID,25.9551,VALID,50,VALID,0,
2009-08-13, 02:48:04,VALID,1007.71,VALID,0,VALID,94.8949,VALID,0,VALID,25.9336,VALID,50,VALID,0,
2009-08-13, 02:49:04,VALID,1007.7,VALID,0,VALID,94.8491,VALID,0,VALID,25.9356,VALID,50,VALID,0,
2009-08-13, 02:50:04,VALID,1007.67,VALID,0,VALID,94.8339,VALID,0,VALID,25.9356,VALID,50,VALID,0,
2009-08-13, 02:51:04,VALID,1007.63,VALID,0,VALID,94.8949,VALID,0,VALID,25.9141,VALID,50,VALID,0,
2009-08-13, 02:52:04,VALID,1007.64,VALID,0,VALID,94.9483,VALID,0,VALID,25.9356,VALID,50,VALID,0,
2009-08-13, 02:53:04,VALID,1007.59,VALID,0,VALID,95.0016,VALID,0,VALID,25.9356,VALID,50,VALID,0,
2009-08-13, 02:54:04,VALID,1007.57,VALID,0,VALID,95.0398,VALID,0,VALID,25.9356,VALID,50,VALID,0,
2009-08-13, 02:55:04,VALID,1007.57,VALID,0,VALID,95.0474,VALID,0,VALID,25.9356,VALID,50,VALID,0,
2009-08-13, 02:56:04,VALID,1007.56,VALID,0,VALID,95.0093,VALID,0,VALID,25.9356,VALID,50,VALID,0,
2009-08-13, 02:57:04,VALID,1007.57,VALID,0,VALID,94.994,VALID,0,VALID,25.9356,VALID,50,VALID,0,
2009-08-13, 02:58:04,VALID,1007.57,VALID,0,VALID,94.9788,VALID,0,VALID,25.9356,VALID,50,VALID,0,
2009-08-13, 02:59:04,VALID,1007.61,VALID,0,VALID,94.9254,VALID,0,VALID,25.9356,VALID,50,VALID,0,
2009-08-13, 03:00:04,VALID,1007.61,VALID,0,VALID,94.9483,VALID,0,VALID,25.9551,VALID,50,VALID,0,
2009-08-13, 03:01:04,VALID,1007.63,VALID,0,VALID,94.8796,VALID,0,VALID,25.9551,VALID,50,VALID,0,
2009-08-13, 03:02:04,VALID,1007.61,VALID,0,VALID,94.9025,VALID,0,VALID,25.9746,VALID,50,VALID,0,
2009-08-13, 03:03:04,VALID,1007.62,VALID,0,VALID,95.0169,VALID,0,VALID,25.9941,VALID,50,VALID,0,
2009-08-13, 03:04:04,VALID,1007.59,VALID,0,VALID,95.0855,VALID,0,VALID,25.9746,VALID,50,VALID,0,
2009-08-13, 03:05:04,VALID,1007.64,VALID,0,VALID,95.1084,VALID,0,VALID,25.9551,VALID,50,VALID,0,
2009-08-13, 03:06:04,VALID,1007.63,VALID,0,VALID,95.1236,VALID,0,VALID,25.9551,VALID,50,VALID,0,
2009-08-13, 03:07:04,VALID,1007.62,VALID,0,VALID,95.2152,VALID,0,VALID,25.9746,VALID,50,VALID,0,
2009-08-13, 03:08:04,VALID,1007.63,VALID,0,VALID,95.2762,VALID,0,VALID,25.9551,VALID,50,VALID,0,
2009-08-13, 03:09:04,VALID,1007.64,VALID,0,VALID,95.3372,VALID,0,VALID,25.9531,VALID,50,VALID,0,
2009-08-13, 03:10:04,VALID,1007.65,VALID,0,VALID,95.3448,VALID,0,VALID,25.9551,VALID,50,VALID,0,
2009-08-13, 03:11:04,VALID,1007.64,VALID,0,VALID,95.3372,VALID,0,VALID,25.9551,VALID,50,VALID,0,
2009-08-13, 03:12:04,VALID,1007.64,VALID,0,VALID,95.36,VALID,0,VALID,25.9551,VALID,50,VALID,0,
2009-08-13, 03:13:04,VALID,1007.6,VALID,0,VALID,95.36,VALID,0,VALID,25.9551,VALID,50,VALID,0,
2009-08-13, 03:14:04,VALID,1007.62,VALID,0,VALID,95.3677,VALID,0,VALID,25.9551,VALID,50,VALID,0,
2009-08-13, 03:15:04,VALID,1007.6,VALID,0,VALID,95.3448,VALID,0,VALID,25.9356,VALID,50,VALID,0,
2009-08-13, 03:16:04,VALID,1007.6,VALID,0,VALID,95.36,VALID,0,VALID,25.9356,VALID,50,VALID,0,
2009-08-13, 03:17:04,VALID,1007.57,VALID,0,VALID,95.3677,VALID,0,VALID,25.9356,VALID,50,VALID,0,
2009-08-13, 03:18:04,VALID,1007.57,VALID,0,VALID,95.4211,VALID,0,VALID,25.9356,VALID,50,VALID,0,
2009-08-13, 03:19:04,VALID,1007.57,VALID,0,VALID,95.4287,VALID,0,VALID,25.9356,VALID,50,VALID,0,
2009-08-13, 03:20:04,VALID,1007.58,VALID,0,VALID,95.4668,VALID,0,VALID,25.9161,VALID,50,VALID,0,
2009-08-13, 03:21:04,VALID,1007.57,VALID,0,VALID,95.4821,VALID,0,VALID,25.9356,VALID,50,VALID,0,
2009-08-13, 03:22:04,VALID,1007.59,VALID,0,VALID,95.5583,VALID,0,VALID,25.9141,VALID,50,VALID,0,
2009-08-13, 03:23:04,VALID,1007.61,VALID,0,VALID,95.5583,VALID,0,VALID,25.9356,VALID,50,VALID,0,
2009-08-13, 03:24:04,VALID,1007.63,VALID,0,VALID,95.5431,VALID,0.105969,VALID,25.9141,VALID,50,VALID,0,
2009-08-13, 03:25:04,VALID,1007.66,VALID,0,VALID,95.5278,VALID,0.105969,VALID,25.9141,VALID,50,VALID,0,
2009-08-13, 03:26:04,VALID,1007.67,VALID,0,VALID,95.5049,VALID,0,VALID,25.8751,VALID,50,VALID,0,
2009-08-13, 03:27:04,VALID,1007.67,VALID,0,VALID,95.5049,VALID,0,VALID,25.8946,VALID,50,VALID,0,
2009-08-13, 03:28:04,VALID,1007.66,VALID,0,VALID,95.5202,VALID,0.105969,VALID,25.9141,VALID,50,VALID,0,
2009-08-13, 03:29:04,VALID,1007.63,VALID,0,VALID,95.5126,VALID,0.105969,VALID,25.8946,VALID,50,VALID,0,
2009-08-13, 03:30:04,VALID,1007.64,VALID,0,VALID,95.4668,VALID,0,VALID,25.8946,VALID,50,VALID,0,
2009-08-13, 03:31:04,VALID,1007.61,VALID,0,VALID,95.4516,VALID,0.105969,VALID,25.8751,VALID,50,VALID,0,
2009-08-13, 03:32:04,VALID,1007.6,VALID,0,VALID,95.4439,VALID,0,VALID,25.8771,VALID,50,VALID,0,
2009-08-13, 03:33:04,VALID,1007.57,VALID,0,VALID,95.4973,VALID,0.105969,VALID,25.8361,VALID,50,VALID,0,
2009-08-13, 03:34:04,VALID,1007.58,VALID,0,VALID,95.5431,VALID,0,VALID,25.8186,VALID,50,VALID,0,
2009-08-13, 03:35:04,VALID,1007.59,VALID,0,VALID,95.6193,VALID,0,VALID,25.7991,VALID,50,VALID,0,
2009-08-13, 03:36:04,VALID,1007.56,VALID,0,VALID,95.6574,VALID,0.105969,VALID,25.7796,VALID,50,VALID,0,
2009-08-13, 03:37:04,VALID,1007.53,VALID,0,VALID,95.7185,VALID,0,VALID,25.7406,VALID,50,VALID,0,
2009-08-13, 03:38:04,VALID,1007.55,VALID,0,VALID,95.81,VALID,0,VALID,25.7211,VALID,50,VALID,0,
2009-08-13, 03:39:04,VALID,1007.6,VALID,0,VALID,95.8862,VALID,0,VALID,25.7016,VALID,50,VALID,0,
2009-08-13, 03:40:04,VALID,1007.58,VALID,0,VALID,95.9625,VALID,0,VALID,25.6821,VALID,50,VALID,0,
2009-08-13, 03:41:04,VALID,1007.58,VALID,0,VALID,96.0082,VALID,0,VALID,25.6626,VALID,50,VALID,0,
2009-08-13, 03:42:04,VALID,1007.59,VALID,0,VALID,96.0311,VALID,0,VALID,25.6236,VALID,50,VALID,0,
2009-08-13, 03:43:04,VALID,1007.6,VALID,0,VALID,96.0616,VALID,0,VALID,25.6236,VALID,50,VALID,0,
2009-08-13, 03:44:04,VALID,1007.63,VALID,0,VALID,96.054,VALID,0,VALID,25.6041,VALID,50,VALID,0,
2009-08-13, 03:45:04,VALID,1007.64,VALID,0,VALID,96.1226,VALID,0.105969,VALID,25.5632,VALID,50,VALID,0,
2009-08-13, 03:46:04,VALID,1007.64,VALID,0,VALID,96.2141,VALID,0.105969,VALID,25.5651,VALID,50,VALID,0,
2009-08-13, 03:47:04,VALID,1007.7,VALID,0,VALID,96.2218,VALID,0,VALID,25.5261,VALID,114,VALID,0,
2009-08-13, 03:48:04,VALID,1007.7,VALID,0,VALID,96.2523,VALID,0.105969,VALID,25.4852,VALID,114,VALID,0,
2009-08-13, 03:49:04,VALID,1007.73,VALID,0,VALID,96.3666,VALID,0,VALID,25.4657,VALID,114,VALID,0,
2009-08-13, 03:50:04,VALID,1007.76,VALID,0,VALID,96.4124,VALID,0,VALID,25.4482,VALID,114,VALID,0,
2009-08-13, 03:51:04,VALID,1007.75,VALID,0,VALID,96.4505,VALID,0,VALID,25.4092,VALID,114,VALID,0,
2009-08-13, 03:52:04,VALID,1007.79,VALID,0,VALID,96.5497,VALID,0,VALID,25.4092,VALID,114,VALID,0,
2009-08-13, 03:53:04,VALID,1007.81,VALID,0,VALID,96.6564,VALID,0,VALID,25.4287,VALID,114,VALID,0,
2009-08-13, 03:54:04,VALID,1007.81,VALID,0,VALID,96.7556,VALID,0,VALID,25.4072,VALID,114,VALID,0,
2009-08-13, 03:55:04,VALID,1007.8,VALID,0,VALID,96.8547,VALID,0,VALID,25.4482,VALID,114,VALID,0,